owner,sensor,date,latitude,longitude,air_pressure(mBar),qcFlag 
NDBC,ioos:station:wmo:42056:1,2017-03-01T00:40:00Z,19.8020,-84.8570,1016.4,1111122 
NDBC,ioos:station:wmo:42056:1,2017-03-01T01:50:00Z,19.8020,-84.8570,1017.0,1111122 
NDBC,ioos:station:wmo:42056:1,2017-03-01T02:40:00Z,19.8020,-84.8570,1017.6,1111122 
NDBC,ioos:station:wmo:42056:1,2017-03-01T03:40:00Z,19.8020,-84.8570,1017.9,1111122 
NDBC,ioos:station:wmo:42056:1,2017-03-01T04:40:00Z,19.8020,-84.8570,1018.0,1111122 
NDBC,ioos:station:wmo:42056:1,2017-03-01T05:40:00Z,19.8020,-84.8570,1017.6,1111122 
NDBC,ioos:station:wmo:42056:1,2017-03-01T06:40:00Z,19.8020,-84.8570,1017.0,1111122 
NDBC,ioos:station:wmo:42056:1,2017-03-01T07:40:00Z,19.8020,-84.8570,1016.5,1111122 
NDBC,ioos:station:wmo:42056:1,2017-03-01T08:40:00Z,19.8020,-84.8570,1016.0,1111122 
NDBC,ioos:station:wmo:42056:1,2017-03-01T09:40:00Z,19.8020,-84.8570,1015.9,1111122 
NDBC,ioos:station:wmo:42056:1,2017-03-01T10:50:00Z,19.8020,-84.8570,1016.3,1111122 
NDBC,ioos:station:wmo:42056:1,2017-03-01T11:50:00Z,19.8020,-84.8570,1016.5,1111122 
NDBC,ioos:station:wmo:42056:1,2017-03-01T12:40:00Z,19.8020,-84.8570,1016.9,1111122 
NDBC,ioos:station:wmo:42056:1,2017-03-01T13:40:00Z,19.8020,-84.8570,1017.3,1111122 
NDBC,ioos:station:wmo:42056:1,2017-03-01T14:50:00Z,19.8020,-84.8570,1017.6,1111122 
NDBC,ioos:station:wmo:42056:1,2017-03-01T15:40:00Z,19.8020,-84.8570,1018.0,1111122 
NDBC,ioos:station:wmo:42056:1,2017-03-01T16:40:00Z,19.8020,-84.8570,1017.9,1111122 
NDBC,ioos:station:wmo:42056:1,2017-03-01T17:40:00Z,19.8020,-84.8570,1017.3,1111122 
NDBC,ioos:station:wmo:42056:1,2017-03-01T18:50:00Z,19.8020,-84.8570,1016.3,1111122 
NDBC,ioos:station:wmo:42056:1,2017-03-01T19:40:00Z,19.8020,-84.8570,1015.5,1111122 
NDBC,ioos:station:wmo:42056:1,2017-03-01T20:40:00Z,19.8020,-84.8570,1014.9,1111122 
NDBC,ioos:station:wmo:42056:1,2017-03-01T21:40:00Z,19.8020,-84.8570,1014.6,1111122 
NDBC,ioos:station:wmo:42056:1,2017-03-01T22:40:00Z,19.8020,-84.8570,1014.8,1111122 
NDBC,ioos:station:wmo:42056:1,2017-03-02T00:40:00Z,19.8020,-84.8570,1015.5,1111122 
NDBC,ioos:station:wmo:42056:1,2017-03-02T01:20:00Z,19.8020,-84.8570,1016.0,1111122 
NDBC,ioos:station:wmo:42056:1,2017-03-02T02:40:00Z,19.8020,-84.8570,1016.5,1111122 
NDBC,ioos:station:wmo:42056:1,2017-03-02T03:40:00Z,19.8020,-84.8570,1016.5,1111122 
NDBC,ioos:station:wmo:42056:1,2017-03-02T04:30:00Z,19.8020,-84.8570,1016.5,1111122 
NDBC,ioos:station:wmo:42056:1,2017-03-02T05:40:00Z,19.8020,-84.8570,1016.3,1111122 
NDBC,ioos:station:wmo:42056:1,2017-03-02T06:40:00Z,19.8020,-84.8570,1015.9,1111122 
NDBC,ioos:station:wmo:42056:1,2017-03-02T07:40:00Z,19.8020,-84.8570,1015.4,1111122 
NDBC,ioos:station:wmo:42056:1,2017-03-02T08:40:00Z,19.8020,-84.8570,1015.3,1111122 
NDBC,ioos:station:wmo:42056:1,2017-03-02T09:40:00Z,19.8020,-84.8570,1015.3,1111122 
NDBC,ioos:station:wmo:42056:1,2017-03-02T10:30:00Z,19.8020,-84.8570,1015.5,1111122 
NDBC,ioos:station:wmo:42056:1,2017-03-02T11:40:00Z,19.8020,-84.8570,1016.0,1111122 
NDBC,ioos:station:wmo:42056:1,2017-03-02T12:40:00Z,19.8020,-84.8570,1016.6,1111122 
NDBC,ioos:station:wmo:42056:1,2017-03-02T13:00:00Z,19.8020,-84.8570,1017.0,1111122 
NDBC,ioos:station:wmo:42056:1,2017-03-02T14:40:00Z,19.8020,-84.8570,1018.1,1111122 
NDBC,ioos:station:wmo:42056:1,2017-03-02T15:40:00Z,19.8020,-84.8570,1018.5,1111122 
NDBC,ioos:station:wmo:42056:1,2017-03-02T16:30:00Z,19.8020,-84.8570,1018.5,1111122 
NDBC,ioos:station:wmo:42056:1,2017-03-02T17:40:00Z,19.8020,-84.8570,1018.0,1111122 
NDBC,ioos:station:wmo:42056:1,2017-03-02T18:40:00Z,19.8020,-84.8570,1017.5,1111122 
NDBC,ioos:station:wmo:42056:1,2017-03-02T19:50:00Z,19.8020,-84.8570,1016.9,1111122 
NDBC,ioos:station:wmo:42056:1,2017-03-02T20:40:00Z,19.8020,-84.8570,1016.6,1111122 
NDBC,ioos:station:wmo:42056:1,2017-03-02T21:40:00Z,19.8020,-84.8570,1016.5,1111122 
NDBC,ioos:station:wmo:42056:1,2017-03-02T22:30:00Z,19.8020,-84.8570,1017.0,1111122 
NDBC,ioos:station:wmo:42056:1,2017-03-02T23:40:00Z,19.8020,-84.8570,1017.5,1111122 
NDBC,ioos:station:wmo:42056:1,2017-03-03T00:40:00Z,19.8020,-84.8570,1018.0,1111122 
NDBC,ioos:station:wmo:42056:1,2017-03-03T01:40:00Z,19.8020,-84.8570,1018.8,1111122 
NDBC,ioos:station:wmo:42056:1,2017-03-03T02:40:00Z,19.8020,-84.8570,1019.1,1111122 
NDBC,ioos:station:wmo:42056:1,2017-03-03T03:40:00Z,19.8020,-84.8570,1019.3,1111122 
NDBC,ioos:station:wmo:42056:1,2017-03-03T04:30:00Z,19.8020,-84.8570,1019.3,1111122 
NDBC,ioos:station:wmo:42056:1,2017-03-03T05:40:00Z,19.8020,-84.8570,1019.1,1111122 
NDBC,ioos:station:wmo:42056:1,2017-03-03T06:40:00Z,19.8020,-84.8570,1018.6,1111122 
NDBC,ioos:station:wmo:42056:1,2017-03-03T07:40:00Z,19.8020,-84.8570,1018.0,1111122 
NDBC,ioos:station:wmo:42056:1,2017-03-03T08:40:00Z,19.8020,-84.8570,1017.9,1111122 
NDBC,ioos:station:wmo:42056:1,2017-03-03T09:40:00Z,19.8020,-84.8570,1018.1,1111122 
NDBC,ioos:station:wmo:42056:1,2017-03-03T10:30:00Z,19.8020,-84.8570,1018.5,1111122 
NDBC,ioos:station:wmo:42056:1,2017-03-03T11:40:00Z,19.8020,-84.8570,1019.4,1111122 
NDBC,ioos:station:wmo:42056:1,2017-03-03T12:40:00Z,19.8020,-84.8570,1020.0,1111122 
NDBC,ioos:station:wmo:42056:1,2017-03-03T13:40:00Z,19.8020,-84.8570,1020.8,1111122 
NDBC,ioos:station:wmo:42056:1,2017-03-03T14:40:00Z,19.8020,-84.8570,1021.3,1111122 
NDBC,ioos:station:wmo:42056:1,2017-03-03T15:40:00Z,19.8020,-84.8570,1021.3,1111122 
NDBC,ioos:station:wmo:42056:1,2017-03-03T16:30:00Z,19.8020,-84.8570,1021.0,1111122 
NDBC,ioos:station:wmo:42056:1,2017-03-03T17:40:00Z,19.8020,-84.8570,1020.4,1111122 
NDBC,ioos:station:wmo:42056:1,2017-03-03T18:40:00Z,19.8020,-84.8570,1019.6,1111122 
NDBC,ioos:station:wmo:42056:1,2017-03-03T19:40:00Z,19.8020,-84.8570,1018.9,1111122 
NDBC,ioos:station:wmo:42056:1,2017-03-03T20:40:00Z,19.8020,-84.8570,1018.5,1111122 
NDBC,ioos:station:wmo:42056:1,2017-03-03T21:40:00Z,19.8020,-84.8570,1018.4,1111122 
NDBC,ioos:station:wmo:42056:1,2017-03-03T22:40:00Z,19.8020,-84.8570,1018.3,1111122 
NDBC,ioos:station:wmo:42056:1,2017-03-04T00:40:00Z,19.8020,-84.8570,1019.3,1111122 
NDBC,ioos:station:wmo:42056:1,2017-03-04T01:10:00Z,19.8020,-84.8570,1019.8,1111122 
NDBC,ioos:station:wmo:42056:1,2017-03-04T02:40:00Z,19.8020,-84.8570,1020.6,1111122 
NDBC,ioos:station:wmo:42056:1,2017-03-04T03:40:00Z,19.8020,-84.8570,1021.0,1111122 
NDBC,ioos:station:wmo:42056:1,2017-03-04T04:40:00Z,19.8020,-84.8570,1021.0,1111122 
NDBC,ioos:station:wmo:42056:1,2017-03-04T05:50:00Z,19.8020,-84.8570,1020.5,1111122 
NDBC,ioos:station:wmo:42056:1,2017-03-04T06:50:00Z,19.8020,-84.8570,1020.0,1111122 
NDBC,ioos:station:wmo:42056:1,2017-03-04T07:40:00Z,19.8020,-84.8570,1019.6,1111122 
NDBC,ioos:station:wmo:42056:1,2017-03-04T08:40:00Z,19.8020,-84.8570,1019.4,1111122 
NDBC,ioos:station:wmo:42056:1,2017-03-04T09:40:00Z,19.8020,-84.8570,1019.1,1111122 
NDBC,ioos:station:wmo:42056:1,2017-03-04T10:40:00Z,19.8020,-84.8570,1019.3,1111122 
NDBC,ioos:station:wmo:42056:1,2017-03-04T11:40:00Z,19.8020,-84.8570,1019.6,1111122 
NDBC,ioos:station:wmo:42056:1,2017-03-04T12:50:00Z,19.8020,-84.8570,1020.1,1111122 
NDBC,ioos:station:wmo:42056:1,2017-03-04T13:50:00Z,19.8020,-84.8570,1021.0,1111122 
NDBC,ioos:station:wmo:42056:1,2017-03-04T14:40:00Z,19.8020,-84.8570,1021.3,1111122 
NDBC,ioos:station:wmo:42056:1,2017-03-04T15:50:00Z,19.8020,-84.8570,1021.4,1111122 
NDBC,ioos:station:wmo:42056:1,2017-03-04T16:40:00Z,19.8020,-84.8570,1021.1,1111122 
NDBC,ioos:station:wmo:42056:1,2017-03-04T17:40:00Z,19.8020,-84.8570,1020.4,1111122 
NDBC,ioos:station:wmo:42056:1,2017-03-04T18:40:00Z,19.8020,-84.8570,1019.5,1111122 
NDBC,ioos:station:wmo:42056:1,2017-03-04T19:40:00Z,19.8020,-84.8570,1018.9,1111122 
NDBC,ioos:station:wmo:42056:1,2017-03-04T20:40:00Z,19.8020,-84.8570,1018.0,1111122 
NDBC,ioos:station:wmo:42056:1,2017-03-04T21:40:00Z,19.8020,-84.8570,1017.5,1111122 
NDBC,ioos:station:wmo:42056:1,2017-03-04T22:40:00Z,19.8020,-84.8570,1017.8,1111122 
NDBC,ioos:station:wmo:42056:1,2017-03-04T23:50:00Z,19.8020,-84.8570,1018.1,1111122 
NDBC,ioos:station:wmo:42056:1,2017-03-05T00:40:00Z,19.8020,-84.8570,1018.5,1111122 
NDBC,ioos:station:wmo:42056:1,2017-03-05T01:10:00Z,19.8020,-84.8570,1018.5,1111122 
NDBC,ioos:station:wmo:42056:1,2017-03-05T02:50:00Z,19.8020,-84.8570,1018.9,1111122 
NDBC,ioos:station:wmo:42056:1,2017-03-05T03:40:00Z,19.8020,-84.8570,1019.0,1111122 
NDBC,ioos:station:wmo:42056:1,2017-03-05T04:40:00Z,19.8020,-84.8570,1019.0,1111122 
NDBC,ioos:station:wmo:42056:1,2017-03-05T05:40:00Z,19.8020,-84.8570,1018.6,1111122 
NDBC,ioos:station:wmo:42056:1,2017-03-05T06:40:00Z,19.8020,-84.8570,1018.1,1111122 
NDBC,ioos:station:wmo:42056:1,2017-03-05T07:50:00Z,19.8020,-84.8570,1017.3,1111122 
NDBC,ioos:station:wmo:42056:1,2017-03-05T08:40:00Z,19.8020,-84.8570,1017.0,1111122 
NDBC,ioos:station:wmo:42056:1,2017-03-05T09:40:00Z,19.8020,-84.8570,1016.9,1111122 
NDBC,ioos:station:wmo:42056:1,2017-03-05T10:40:00Z,19.8020,-84.8570,1017.0,1111122 
NDBC,ioos:station:wmo:42056:1,2017-03-05T11:40:00Z,19.8020,-84.8570,1017.5,1111122 
NDBC,ioos:station:wmo:42056:1,2017-03-05T12:40:00Z,19.8020,-84.8570,1018.0,1111122 
NDBC,ioos:station:wmo:42056:1,2017-03-05T13:40:00Z,19.8020,-84.8570,1018.4,1111122 
NDBC,ioos:station:wmo:42056:1,2017-03-05T14:50:00Z,19.8020,-84.8570,1019.0,1111122 
NDBC,ioos:station:wmo:42056:1,2017-03-05T15:40:00Z,19.8020,-84.8570,1019.0,1111122 
NDBC,ioos:station:wmo:42056:1,2017-03-05T16:40:00Z,19.8020,-84.8570,1019.0,1111122 
NDBC,ioos:station:wmo:42056:1,2017-03-05T17:50:00Z,19.8020,-84.8570,1018.1,1111122 
NDBC,ioos:station:wmo:42056:1,2017-03-05T18:40:00Z,19.8020,-84.8570,1017.5,1111122 
NDBC,ioos:station:wmo:42056:1,2017-03-05T19:40:00Z,19.8020,-84.8570,1016.5,1111122 
NDBC,ioos:station:wmo:42056:1,2017-03-05T20:40:00Z,19.8020,-84.8570,1016.0,1111122 
NDBC,ioos:station:wmo:42056:1,2017-03-05T21:40:00Z,19.8020,-84.8570,1015.6,1111122 
NDBC,ioos:station:wmo:42056:1,2017-03-05T22:40:00Z,19.8020,-84.8570,1015.6,1111122 
NDBC,ioos:station:wmo:42056:1,2017-03-05T23:40:00Z,19.8020,-84.8570,1015.9,1111122 
NDBC,ioos:station:wmo:42056:1,2017-03-06T00:40:00Z,19.8020,-84.8570,1016.5,1111122 
NDBC,ioos:station:wmo:42056:1,2017-03-06T01:40:00Z,19.8020,-84.8570,1017.5,1111122 
NDBC,ioos:station:wmo:42056:1,2017-03-06T02:40:00Z,19.8020,-84.8570,1017.8,1111122 
NDBC,ioos:station:wmo:42056:1,2017-03-06T03:40:00Z,19.8020,-84.8570,1017.8,1111122 
NDBC,ioos:station:wmo:42056:1,2017-03-06T04:40:00Z,19.8020,-84.8570,1018.0,1111122 
NDBC,ioos:station:wmo:42056:1,2017-03-06T05:40:00Z,19.8020,-84.8570,1017.5,1111122 
NDBC,ioos:station:wmo:42056:1,2017-03-06T06:40:00Z,19.8020,-84.8570,1017.0,1111122 
NDBC,ioos:station:wmo:42056:1,2017-03-06T07:40:00Z,19.8020,-84.8570,1016.4,1111122 
NDBC,ioos:station:wmo:42056:1,2017-03-06T08:50:00Z,19.8020,-84.8570,1016.0,1111122 
NDBC,ioos:station:wmo:42056:1,2017-03-06T09:40:00Z,19.8020,-84.8570,1016.0,1111122 
NDBC,ioos:station:wmo:42056:1,2017-03-06T10:40:00Z,19.8020,-84.8570,1016.3,1111122 
NDBC,ioos:station:wmo:42056:1,2017-03-06T11:50:00Z,19.8020,-84.8570,1016.6,1111122 
NDBC,ioos:station:wmo:42056:1,2017-03-06T12:40:00Z,19.8020,-84.8570,1017.4,1111122 
NDBC,ioos:station:wmo:42056:1,2017-03-06T13:30:00Z,19.8020,-84.8570,1017.8,1111122 
NDBC,ioos:station:wmo:42056:1,2017-03-06T14:30:00Z,19.8020,-84.8570,1018.1,1111122 
NDBC,ioos:station:wmo:42056:1,2017-03-06T15:40:00Z,19.8020,-84.8570,1018.4,1111122 
NDBC,ioos:station:wmo:42056:1,2017-03-06T16:40:00Z,19.8020,-84.8570,1018.5,1111122 
NDBC,ioos:station:wmo:42056:1,2017-03-06T17:40:00Z,19.8020,-84.8570,1017.8,1111122 
NDBC,ioos:station:wmo:42056:1,2017-03-06T18:40:00Z,19.8020,-84.8570,1017.0,1111122 
NDBC,ioos:station:wmo:42056:1,2017-03-06T19:40:00Z,19.8020,-84.8570,1016.5,1111122 
NDBC,ioos:station:wmo:42056:1,2017-03-06T20:40:00Z,19.8020,-84.8570,1015.9,1111122 
NDBC,ioos:station:wmo:42056:1,2017-03-06T21:40:00Z,19.8020,-84.8570,1015.8,1111122 
NDBC,ioos:station:wmo:42056:1,2017-03-06T22:50:00Z,19.8020,-84.8570,1016.1,1111122 
NDBC,ioos:station:wmo:42056:1,2017-03-06T23:40:00Z,19.8020,-84.8570,1016.4,1111122 
NDBC,ioos:station:wmo:42056:1,2017-03-07T00:40:00Z,19.8020,-84.8570,1016.8,1111122 
NDBC,ioos:station:wmo:42056:1,2017-03-07T01:20:00Z,19.8020,-84.8570,1017.1,1111122 
NDBC,ioos:station:wmo:42056:1,2017-03-07T02:50:00Z,19.8020,-84.8570,1018.0,1111122 
NDBC,ioos:station:wmo:42056:1,2017-03-07T03:40:00Z,19.8020,-84.8570,1018.0,1111122 
NDBC,ioos:station:wmo:42056:1,2017-03-07T04:50:00Z,19.8020,-84.8570,1017.5,1111122 
NDBC,ioos:station:wmo:42056:1,2017-03-07T05:40:00Z,19.8020,-84.8570,1017.5,1111122 
NDBC,ioos:station:wmo:42056:1,2017-03-07T06:40:00Z,19.8020,-84.8570,1017.0,1111122 
NDBC,ioos:station:wmo:42056:1,2017-03-07T07:50:00Z,19.8020,-84.8570,1016.5,1111122 
NDBC,ioos:station:wmo:42056:1,2017-03-07T08:40:00Z,19.8020,-84.8570,1016.5,1111122 
NDBC,ioos:station:wmo:42056:1,2017-03-07T09:40:00Z,19.8020,-84.8570,1016.5,1111122 
NDBC,ioos:station:wmo:42056:1,2017-03-07T10:40:00Z,19.8020,-84.8570,1016.5,1111122 
NDBC,ioos:station:wmo:42056:1,2017-03-07T11:40:00Z,19.8020,-84.8570,1017.3,1111122 
NDBC,ioos:station:wmo:42056:1,2017-03-07T12:40:00Z,19.8020,-84.8570,1018.0,1111122 
NDBC,ioos:station:wmo:42056:1,2017-03-07T13:10:00Z,19.8020,-84.8570,1018.1,1111122 
NDBC,ioos:station:wmo:42056:1,2017-03-07T14:50:00Z,19.8020,-84.8570,1019.1,1111122 
NDBC,ioos:station:wmo:42056:1,2017-03-07T15:50:00Z,19.8020,-84.8570,1019.4,1111122 
NDBC,ioos:station:wmo:42056:1,2017-03-07T16:40:00Z,19.8020,-84.8570,1019.4,1111122 
NDBC,ioos:station:wmo:42056:1,2017-03-07T17:40:00Z,19.8020,-84.8570,1018.8,1111122 
NDBC,ioos:station:wmo:42056:1,2017-03-07T18:50:00Z,19.8020,-84.8570,1018.3,1111122 
NDBC,ioos:station:wmo:42056:1,2017-03-07T19:40:00Z,19.8020,-84.8570,1017.5,1111122 
NDBC,ioos:station:wmo:42056:1,2017-03-07T20:40:00Z,19.8020,-84.8570,1017.3,1111122 
NDBC,ioos:station:wmo:42056:1,2017-03-07T21:40:00Z,19.8020,-84.8570,1017.0,1111122 
NDBC,ioos:station:wmo:42056:1,2017-03-07T22:50:00Z,19.8020,-84.8570,1017.5,1111122 
NDBC,ioos:station:wmo:42056:1,2017-03-08T00:40:00Z,19.8020,-84.8570,1018.5,1111122 
NDBC,ioos:station:wmo:42056:1,2017-03-08T01:10:00Z,19.8020,-84.8570,1018.9,1111122 
NDBC,ioos:station:wmo:42056:1,2017-03-08T02:40:00Z,19.8020,-84.8570,1019.5,1111122 
NDBC,ioos:station:wmo:42056:1,2017-03-08T03:40:00Z,19.8020,-84.8570,1019.5,1111122 
NDBC,ioos:station:wmo:42056:1,2017-03-08T04:40:00Z,19.8020,-84.8570,1019.5,1111122 
NDBC,ioos:station:wmo:42056:1,2017-03-08T05:50:00Z,19.8020,-84.8570,1019.4,1111122 
NDBC,ioos:station:wmo:42056:1,2017-03-08T06:40:00Z,19.8020,-84.8570,1019.1,1111122 
NDBC,ioos:station:wmo:42056:1,2017-03-08T07:40:00Z,19.8020,-84.8570,1018.9,1111122 
NDBC,ioos:station:wmo:42056:1,2017-03-08T08:40:00Z,19.8020,-84.8570,1018.9,1111122 
NDBC,ioos:station:wmo:42056:1,2017-03-08T09:50:00Z,19.8020,-84.8570,1018.9,1111122 
NDBC,ioos:station:wmo:42056:1,2017-03-08T10:50:00Z,19.8020,-84.8570,1019.1,1111122 
NDBC,ioos:station:wmo:42056:1,2017-03-08T11:20:00Z,19.8020,-84.8570,1019.4,1111122 
NDBC,ioos:station:wmo:42056:1,2017-03-08T12:40:00Z,19.8020,-84.8570,1020.0,1111122 
NDBC,ioos:station:wmo:42056:1,2017-03-08T13:30:00Z,19.8020,-84.8570,1020.8,1111122 
NDBC,ioos:station:wmo:42056:1,2017-03-08T14:50:00Z,19.8020,-84.8570,1021.3,1111122 
NDBC,ioos:station:wmo:42056:1,2017-03-08T15:50:00Z,19.8020,-84.8570,1021.0,1111122 
NDBC,ioos:station:wmo:42056:1,2017-03-08T16:40:00Z,19.8020,-84.8570,1020.8,1111122 
NDBC,ioos:station:wmo:42056:1,2017-03-08T17:40:00Z,19.8020,-84.8570,1020.1,1111122 
NDBC,ioos:station:wmo:42056:1,2017-03-08T18:40:00Z,19.8020,-84.8570,1019.4,1111122 
NDBC,ioos:station:wmo:42056:1,2017-03-08T19:50:00Z,19.8020,-84.8570,1018.8,1111122 
NDBC,ioos:station:wmo:42056:1,2017-03-08T20:40:00Z,19.8020,-84.8570,1018.0,1111122 
NDBC,ioos:station:wmo:42056:1,2017-03-08T21:40:00Z,19.8020,-84.8570,1017.9,1111122 
NDBC,ioos:station:wmo:42056:1,2017-03-08T22:40:00Z,19.8020,-84.8570,1018.0,1111122 
NDBC,ioos:station:wmo:42056:1,2017-03-08T23:30:00Z,19.8020,-84.8570,1018.0,1111122 
NDBC,ioos:station:wmo:42056:1,2017-03-09T00:50:00Z,19.8020,-84.8570,1018.5,1111122 
NDBC,ioos:station:wmo:42056:1,2017-03-09T01:40:00Z,19.8020,-84.8570,1019.0,1111122 
NDBC,ioos:station:wmo:42056:1,2017-03-09T02:40:00Z,19.8020,-84.8570,1019.3,1111122 
NDBC,ioos:station:wmo:42056:1,2017-03-09T03:50:00Z,19.8020,-84.8570,1019.6,1111122 
NDBC,ioos:station:wmo:42056:1,2017-03-09T04:50:00Z,19.8020,-84.8570,1019.6,1111122 
NDBC,ioos:station:wmo:42056:1,2017-03-09T05:40:00Z,19.8020,-84.8570,1019.3,1111122 
NDBC,ioos:station:wmo:42056:1,2017-03-09T06:50:00Z,19.8020,-84.8570,1018.6,1111122 
NDBC,ioos:station:wmo:42056:1,2017-03-09T07:40:00Z,19.8020,-84.8570,1018.5,1111122 
NDBC,ioos:station:wmo:42056:1,2017-03-09T08:40:00Z,19.8020,-84.8570,1017.9,1111122 
NDBC,ioos:station:wmo:42056:1,2017-03-09T09:40:00Z,19.8020,-84.8570,1017.9,1111122 
NDBC,ioos:station:wmo:42056:1,2017-03-09T10:40:00Z,19.8020,-84.8570,1018.5,1111122 
NDBC,ioos:station:wmo:42056:1,2017-03-09T11:40:00Z,19.8020,-84.8570,1018.6,1111122 
NDBC,ioos:station:wmo:42056:1,2017-03-09T12:40:00Z,19.8020,-84.8570,1019.1,1111122 
NDBC,ioos:station:wmo:42056:1,2017-03-09T13:40:00Z,19.8020,-84.8570,1019.5,1111122 
NDBC,ioos:station:wmo:42056:1,2017-03-09T14:50:00Z,19.8020,-84.8570,1019.8,1111122 
NDBC,ioos:station:wmo:42056:1,2017-03-09T15:40:00Z,19.8020,-84.8570,1019.5,1111122 
NDBC,ioos:station:wmo:42056:1,2017-03-09T16:40:00Z,19.8020,-84.8570,1019.4,1111122 
NDBC,ioos:station:wmo:42056:1,2017-03-09T17:40:00Z,19.8020,-84.8570,1018.5,1111122 
NDBC,ioos:station:wmo:42056:1,2017-03-09T18:50:00Z,19.8020,-84.8570,1017.1,1111122 
NDBC,ioos:station:wmo:42056:1,2017-03-09T19:40:00Z,19.8020,-84.8570,1016.6,1111122 
NDBC,ioos:station:wmo:42056:1,2017-03-09T20:40:00Z,19.8020,-84.8570,1016.0,1111122 
NDBC,ioos:station:wmo:42056:1,2017-03-09T21:40:00Z,19.8020,-84.8570,1015.8,1111122 
NDBC,ioos:station:wmo:42056:1,2017-03-09T22:50:00Z,19.8020,-84.8570,1016.0,1111122 
NDBC,ioos:station:wmo:42056:1,2017-03-09T23:40:00Z,19.8020,-84.8570,1016.4,1111122 
NDBC,ioos:station:wmo:42056:1,2017-03-10T00:40:00Z,19.8020,-84.8570,1016.8,1111122 
NDBC,ioos:station:wmo:42056:1,2017-03-10T01:00:00Z,19.8020,-84.8570,1017.0,1111122 
NDBC,ioos:station:wmo:42056:1,2017-03-10T02:40:00Z,19.8020,-84.8570,1018.1,1111122 
NDBC,ioos:station:wmo:42056:1,2017-03-10T03:40:00Z,19.8020,-84.8570,1018.1,1111122 
NDBC,ioos:station:wmo:42056:1,2017-03-10T04:30:00Z,19.8020,-84.8570,1018.1,1111122 
NDBC,ioos:station:wmo:42056:1,2017-03-10T05:40:00Z,19.8020,-84.8570,1017.9,1111122 
NDBC,ioos:station:wmo:42056:1,2017-03-10T07:20:00Z,19.8020,-84.8570,1016.4,1111122 
NDBC,ioos:station:wmo:42056:1,2017-03-10T07:40:00Z,19.8020,-84.8570,1016.0,1111122 
NDBC,ioos:station:wmo:42056:1,2017-03-10T08:40:00Z,19.8020,-84.8570,1015.5,1111122 
NDBC,ioos:station:wmo:42056:1,2017-03-10T09:40:00Z,19.8020,-84.8570,1015.8,1111122 
NDBC,ioos:station:wmo:42056:1,2017-03-10T10:40:00Z,19.8020,-84.8570,1015.9,1111122 
NDBC,ioos:station:wmo:42056:1,2017-03-10T11:40:00Z,19.8020,-84.8570,1016.5,1111122 
NDBC,ioos:station:wmo:42056:1,2017-03-10T12:40:00Z,19.8020,-84.8570,1017.0,1111122 
NDBC,ioos:station:wmo:42056:1,2017-03-10T13:40:00Z,19.8020,-84.8570,1017.6,1111122 
NDBC,ioos:station:wmo:42056:1,2017-03-10T14:40:00Z,19.8020,-84.8570,1018.1,1111122 
NDBC,ioos:station:wmo:42056:1,2017-03-10T15:50:00Z,19.8020,-84.8570,1018.4,1111122 
NDBC,ioos:station:wmo:42056:1,2017-03-10T16:40:00Z,19.8020,-84.8570,1018.3,1111122 
NDBC,ioos:station:wmo:42056:1,2017-03-10T17:40:00Z,19.8020,-84.8570,1017.5,1111122 
NDBC,ioos:station:wmo:42056:1,2017-03-10T18:50:00Z,19.8020,-84.8570,1016.5,1111122 
NDBC,ioos:station:wmo:42056:1,2017-03-10T19:50:00Z,19.8020,-84.8570,1016.1,1111122 
NDBC,ioos:station:wmo:42056:1,2017-03-10T20:50:00Z,19.8020,-84.8570,1015.5,1111122 
NDBC,ioos:station:wmo:42056:1,2017-03-10T21:40:00Z,19.8020,-84.8570,1015.4,1111122 
NDBC,ioos:station:wmo:42056:1,2017-03-10T22:40:00Z,19.8020,-84.8570,1015.4,1111122 
NDBC,ioos:station:wmo:42056:1,2017-03-10T23:40:00Z,19.8020,-84.8570,1015.4,1111122 
NDBC,ioos:station:wmo:42056:1,2017-03-11T00:40:00Z,19.8020,-84.8570,1016.0,1111122 
NDBC,ioos:station:wmo:42056:1,2017-03-11T01:40:00Z,19.8020,-84.8570,1016.8,1111122 
NDBC,ioos:station:wmo:42056:1,2017-03-11T02:40:00Z,19.8020,-84.8570,1016.8,1111122 
NDBC,ioos:station:wmo:42056:1,2017-03-11T03:30:00Z,19.8020,-84.8570,1017.1,1111122 
NDBC,ioos:station:wmo:42056:1,2017-03-11T05:40:00Z,19.8020,-84.8570,1016.5,1111122 
NDBC,ioos:station:wmo:42056:1,2017-03-11T06:30:00Z,19.8020,-84.8570,1016.1,1111122 
NDBC,ioos:station:wmo:42056:1,2017-03-11T07:40:00Z,19.8020,-84.8570,1015.5,1111122 
NDBC,ioos:station:wmo:42056:1,2017-03-11T08:40:00Z,19.8020,-84.8570,1014.9,1111122 
NDBC,ioos:station:wmo:42056:1,2017-03-11T09:30:00Z,19.8020,-84.8570,1014.6,1111122 
NDBC,ioos:station:wmo:42056:1,2017-03-11T10:40:00Z,19.8020,-84.8570,1015.5,1111122 
NDBC,ioos:station:wmo:42056:1,2017-03-11T11:40:00Z,19.8020,-84.8570,1016.0,1111122 
NDBC,ioos:station:wmo:42056:1,2017-03-11T12:40:00Z,19.8020,-84.8570,1016.9,1111122 
NDBC,ioos:station:wmo:42056:1,2017-03-11T13:40:00Z,19.8020,-84.8570,1017.8,1111122 
NDBC,ioos:station:wmo:42056:1,2017-03-11T14:40:00Z,19.8020,-84.8570,1018.3,1111122 
NDBC,ioos:station:wmo:42056:1,2017-03-11T15:50:00Z,19.8020,-84.8570,1018.5,1111122 
NDBC,ioos:station:wmo:42056:1,2017-03-11T16:40:00Z,19.8020,-84.8570,1018.1,1111122 
NDBC,ioos:station:wmo:42056:1,2017-03-11T17:40:00Z,19.8020,-84.8570,1017.4,1111122 
NDBC,ioos:station:wmo:42056:1,2017-03-11T18:40:00Z,19.8020,-84.8570,1016.4,1111122 
NDBC,ioos:station:wmo:42056:1,2017-03-11T19:40:00Z,19.8020,-84.8570,1015.8,1111122 
NDBC,ioos:station:wmo:42056:1,2017-03-11T20:40:00Z,19.8020,-84.8570,1015.3,1111122 
NDBC,ioos:station:wmo:42056:1,2017-03-11T21:40:00Z,19.8020,-84.8570,1015.0,1111122 
NDBC,ioos:station:wmo:42056:1,2017-03-11T22:40:00Z,19.8020,-84.8570,1014.8,1111122 
NDBC,ioos:station:wmo:42056:1,2017-03-11T23:40:00Z,19.8020,-84.8570,1014.9,1111122 
NDBC,ioos:station:wmo:42056:1,2017-03-12T00:40:00Z,19.8020,-84.8570,1015.5,1111122 
NDBC,ioos:station:wmo:42056:1,2017-03-12T01:50:00Z,19.8020,-84.8570,1015.9,1111122 
NDBC,ioos:station:wmo:42056:1,2017-03-12T02:40:00Z,19.8020,-84.8570,1016.0,1111122 
NDBC,ioos:station:wmo:42056:1,2017-03-12T03:40:00Z,19.8020,-84.8570,1016.3,1111122 
NDBC,ioos:station:wmo:42056:1,2017-03-12T04:50:00Z,19.8020,-84.8570,1015.9,1111122 
NDBC,ioos:station:wmo:42056:1,2017-03-12T05:50:00Z,19.8020,-84.8570,1015.1,1111122 
NDBC,ioos:station:wmo:42056:1,2017-03-12T06:40:00Z,19.8020,-84.8570,1014.6,1111122 
NDBC,ioos:station:wmo:42056:1,2017-03-12T07:40:00Z,19.8020,-84.8570,1014.1,1111122 
NDBC,ioos:station:wmo:42056:1,2017-03-12T08:40:00Z,19.8020,-84.8570,1014.0,1111122 
NDBC,ioos:station:wmo:42056:1,2017-03-12T09:40:00Z,19.8020,-84.8570,1014.1,1111122 
NDBC,ioos:station:wmo:42056:1,2017-03-12T10:40:00Z,19.8020,-84.8570,1014.5,1111122 
NDBC,ioos:station:wmo:42056:1,2017-03-12T11:40:00Z,19.8020,-84.8570,1015.0,1111122 
NDBC,ioos:station:wmo:42056:1,2017-03-12T12:40:00Z,19.8020,-84.8570,1015.5,1111122 
NDBC,ioos:station:wmo:42056:1,2017-03-12T13:40:00Z,19.8020,-84.8570,1016.4,1111122 
NDBC,ioos:station:wmo:42056:1,2017-03-12T14:50:00Z,19.8020,-84.8570,1016.9,1111122 
NDBC,ioos:station:wmo:42056:1,2017-03-12T15:50:00Z,19.8020,-84.8570,1017.0,1111122 
NDBC,ioos:station:wmo:42056:1,2017-03-12T16:40:00Z,19.8020,-84.8570,1016.5,1111122 
NDBC,ioos:station:wmo:42056:1,2017-03-12T17:40:00Z,19.8020,-84.8570,1016.0,1111122 
NDBC,ioos:station:wmo:42056:1,2017-03-12T18:40:00Z,19.8020,-84.8570,1015.0,1111122 
NDBC,ioos:station:wmo:42056:1,2017-03-12T19:50:00Z,19.8020,-84.8570,1014.1,1111122 
NDBC,ioos:station:wmo:42056:1,2017-03-12T20:50:00Z,19.8020,-84.8570,1013.6,1111122 
NDBC,ioos:station:wmo:42056:1,2017-03-12T21:50:00Z,19.8020,-84.8570,1013.5,1111122 
NDBC,ioos:station:wmo:42056:1,2017-03-12T22:50:00Z,19.8020,-84.8570,1013.5,1111122 
NDBC,ioos:station:wmo:42056:1,2017-03-12T23:40:00Z,19.8020,-84.8570,1013.5,1111122 